User: anonymous   Login
Location: Unspecified
(0.0000°N, 0.0000°E)
Time: 10:29:19
(UTC+00:00)
Language:

O/OREOS (USA 219) - Orbit

View from above orbital plane
View from above orbital plane
View from above satellite
View from above satellite

Ground track
Ground track

The orbit data is extracted from the following two-line orbital elements,

1 37224U 10062C   24150.90910744  .00003279  00000-0  36990-3 0  9994
2 37224  71.9725 328.0113 0014200  45.6654 314.5674 14.87199567  5110
Epoch (UTC): 29 May 2024 21:49:06
Eccentricity: 0.0014200
inclination: 71.9725°
perigee height: 597 km
apogee height: 616 km
right ascension of ascending node: 328.0113°
argument of perigee: 45.6654°
revolutions per day: 14.87199567
mean anomaly at epoch: 314.5674°
orbit number at epoch: 511

The dashed part of the orbit path shows where the satellite is in the earth's shadow,  

DLR